Regional Weather Roundup
Issued by NWS

Home | Current Version | Previous Version | Text Only | Print | Product List | Glossary Off
Versions: 1 2 3 4 5 6 7 8 9 10 11 12 13 14 15 16 17 18 19 20 21 22 23 24 25 26 27

000
ASUS45 KTFX 171710
RWRMT
MONTANA REGIONAL WEATHER ROUNDUP
NATIONAL WEATHER SERVICE GREAT FALLS MT
1000 AM MST TUE JAN 17 2017

NOTE: "FAIR" INDICATES FEW OR NO CLOUDS BELOW 12000 FEET WITH NO
SIGNIFICANT WEATHER AND/OR OBSTRUCTIONS TO VISIBILITY.

MTZ001>007-043-171800-
WEST OF THE DIVIDE

CITY           SKY/WX    TMP DP  RH WIND       PRES   REMARKS
KALISPELL      CLOUDY    14  10  84 CALM      30.06S FOG
MISSOULA       SUNNY      3   1  92 CALM      30.16S
BUTTE          CLOUDY     2  -4  76 SE5       30.06R
MULLAN PASS    CLOUDY    27  17  66 VRB6      29.94R WCI  20
ANACONDA         N/A     21   7  53 S7        30.04S WCI  13
DEER LODGE       N/A      5   0  78 CALM      30.09R
EUREKA           N/A     27  18  69 S12G17    29.99S WCI  16
HAMILTON         N/A      3  -2  78 CALM      30.10F
PLAINS           N/A      8  -1  66 E1        30.09F
RONAN            N/A      6   1  80 MISG      30.06F
$$

MTZ008-052>055-171800-
SOUTHWEST MONTANA

CITY           SKY/WX    TMP DP  RH WIND       PRES   REMARKS
BOZEMAN        CLOUDY    11   4  73 CALM      30.07F
DILLON         CLOUDY    22   6  50 S12       30.09R WCI  10
W YELLOWSTONE  FLURRIES  -4  -8  84 CALM      30.23R
ENNIS          SUNNY     25  14  63 S21G31    30.11S WCI  10
TWIN BRIDGES     N/A     19   3  49 E6        30.07R WCI  11
$$

MTZ009-010-012-014-046-048-049-054-171800-
EAST SLOPES AND CENTRAL MONTANA

CITY           SKY/WX    TMP DP  RH WIND       PRES   REMARKS
CUT BANK       CLOUDY    40  25  55 W28G36    29.77R
GREAT FALLS    CLOUDY    37  17  44 SW35      29.84S WCI  24
MALMSTROM AFB  CLOUDY    33  19  56 SW23      29.87R WCI  21
HELENA         CLOUDY     3  -2  79 CALM      30.10R HAZE
BOWMANS CRNR     N/A     26  13  58 S24       29.89S WCI  11
CHOTEAU          N/A     45  27  49 SW20      29.84F
CONRAD           N/A     38  30  73 S12       29.83F WCI  30
FAIRFIELD        N/A     31  17  57 SW26      29.85R WCI  17
POWER            N/A     34  20  58 SW24      29.84R WCI  21
RAYNESFORD       N/A     50  23  34 W28G36    29.84R
ULM              N/A     31  18  58 MISG      29.90R
$$

MTZ011-013-016-021-045-047-050-051-171800-
NORTH CENTRAL MONTANA

CITY           SKY/WX    TMP DP  RH WIND       PRES   REMARKS
HAVRE          CLOUDY    39  25  57 SW29G36   29.77R WCI  27
LEWISTOWN      CLOUDY    38  21  50 NW7       29.84R
N BAR RANCH      N/A     45  23  42 NW9       29.83R
CHINOOK          N/A     46  23  39 SW30G43   29.70R
FORT BENTON      N/A     43  18  36 MISG      29.85R
GEYSER           N/A     42  24  50 NW21      29.81R
GRASS RANGE      N/A     42  24  48 W10       29.78R
JUDITH GAP       N/A     44  21  40 W21G30    29.84S
ROY              N/A     42  27  56 MISG      29.78R
WINIFRED         N/A     43  25  49 SW14      29.79S
$$

MTZ017>020-022>027-061-062-171800-
NORTHEAST MONTANA

CITY           SKY/WX    TMP DP  RH WIND       PRES   REMARKS
GLASGOW        CLOUDY    19  13  77 SE9       29.72F WCI   8
JORDAN           N/A     34  22  61 W12       29.78S WCI  25
SIDNEY         CLOUDY    18  11  74 S12       29.80F WCI   5
WOLF POINT     CLOUDY    10   6  84 CALM      29.76F
PLENTYWOOD       N/A     18  10  73 SE9       29.71S WCI   6
POPLAR           N/A     21  10  63 CALM      29.76F
SCOBEY           N/A     25   7  46 S2        29.70R
$$

MTZ028>42-056>058-171800-
SOUTHCENTRAL AND SOUTHEAST MONTANA

CITY           SKY/WX    TMP DP  RH WIND       PRES   REMARKS
BAKER          CLOUDY    27  14  58 SW21      29.85R WCI  13
BILLINGS       CLOUDY    31  14  49 SW35G41   29.89R WCI  15
LIVINGSTON     CLOUDY    39  17  41 SW29      29.95R WCI  27
MILES CITY     CLOUDY    16   7  67 SE10      29.87R WCI   4
BIG TIMBER     SUNNY     39  18  41 W29G40    29.92S WCI  28
EKALAKA          N/A     36   9  32 SW14      29.85R WCI  27
FORSYTH          N/A     23  10  58 N3        29.85S
HARLOWTON      PTSUNNY   40  17  40 W30       29.87R
LAUREL           N/A     31  13  47 S30       29.89S WCI  16
$$

REGIONAL REPORTS...DAKOTAS

CITY           SKY/WX    TMP DP  RH WIND       PRES   REMARKS
WILLISTON      CLOUDY    20  11  68 SW12      29.78F WCI   8
MINOT          CLOUDY    25  13  60 S20       29.76F WCI  11
DICKINSON      CLOUDY    26  13  57 SW16      29.81S WCI  14
BEACH            N/A     28  14  54 SW20G25   29.84S WCI  15
CROSBY           N/A     19  14  79 S29G35    29.69F WCI   1
TIOGA            N/A     19  14  79 SW24G31   29.74S WCI   2
WATFORD CITY     N/A     25  14  63 SW14G24   29.78F WCI  13
BISMARCK       CLOUDY     9   5  84 CALM      29.92F
GRAND FORKS    CLOUDY    14   9  80 S9        29.91F WCI   2
FARGO          CLOUDY    13   9  84 S10       29.98S WCI   0
BUFFALO SD       N/A     24  11  57 SW7       29.82R WCI  16
RAPID CITY     CLOUDY    23  13  65 NW5       29.91S
$$

REGIONAL REPORTS...WYOMING/IDAHO/WASHINGTON

CITY           SKY/WX    TMP DP  RH WIND       PRES   REMARKS
GILLETTE       CLOUDY    32  13  45 SW22      29.92F WCI  19
SHERIDAN       CLOUDY    21   8  57 VRB6      29.89F WCI  13
BUFFALO WY     CLOUDY    37   8  30 S3        29.92F
CODY           CLOUDY    16   6  65 CALM      29.99F
YELLOWSTONE LA   N/A     -5  -8  87 CALM      30.20R
IDAHO FALLS    CLOUDY    -1  -6  79 N7        30.31S WCI -14
SALMON         CLOUDY   -15 -17  91 CALM      30.40R
BOISE          SUNNY      5   1  83 NW6       30.35S FOG     WCI  -6
SPOKANE        CLOUDY    19  16  88 CALM      30.05S
$$

REGIONAL REPORTS...ALBERTA

CITY           SKY/WX    TMP DP  RH WIND       PRES   REMARKS
EDMONTON       MOCLDY    39  25  56 SW9       29.35F
CALGARY        MOCLDY    39  30  70 S9        29.50S
LETHBRIDGE     PTSUNNY   41  30  65 SW33G40   29.64F
MEDICINE HAT   PTSUNNY   41  32  70 SW23G29   29.58R
WATERTON GATE    N/A     43  19  39 SW25G43     N/A
CARDSTON         N/A     46  23  39 SW9G18      N/A
MILK RIVER       N/A     43  30  61 W30G37      N/A
ONEFOUR          N/A     45  30  57 W9G17       N/A
$$

REGIONAL REPORTS...SASKATCHEWAN

CITY           SKY/WX    TMP DP  RH WIND       PRES   REMARKS
SWIFT CURRENT  SUNNY     39  30  70 W20       29.55R WCI  30
REGINA         PTSUNNY   32  23  69 SW8       29.55S WCI  25
SASKATOON      CLOUDY    34  27  75 W12       29.45R WCI  25
CYPRESS HILLS    N/A     43  28  56 W20G29      N/A
VAL MARIE        N/A     32  23  69 SW7G17      N/A  WCI  26
ROCKGLEN         N/A     32  21  64 W26         N/A  WCI  18
ASSINIBOIA       N/A     36  27  69 S7          N/A  WCI  30
$$




USA.gov is the U.S. government's official web portal to all federal, state and local government web resources and services.